User: anonymous   Login
Location: Leuk
(46.3174°N, 7.6341°E)
Time: 18:59:53
(UTC+00:00)
Language:

Cosmos 2322 - Orbit

View from above orbital plane
View from above orbital plane
View from above satellite
View from above satellite

Ground track
Ground track

The orbit data is extracted from the following two-line orbital elements,

1 23704U 95058A   21332.73651134 -.00000314  00000-0 -14170-3 0  9990
2 23704  70.9860 236.5165 0008643 171.1051 189.0225 14.13440230345329
Epoch (UTC): 28 November 2021 17:40:34
Eccentricity: 0.0008643
inclination: 70.9860°
perigee height: 841 km
apogee height: 854 km
right ascension of ascending node: 236.5165°
argument of perigee: 171.1051°
revolutions per day: 14.13440230
mean anomaly at epoch: 189.0225°
orbit number at epoch: 34532

The dashed part of the orbit path shows where the satellite is in the earth's shadow,  

DLR